[[{"header":{"parameterUnit":"m.s-1","parameterCategory":1,"la1":30.2991,"la2":30.254,"lo1":-89.0895,"lo2":-89.0444,"dy":0.0017,"dx":0.0017,"nx":28,"ny":28,"refTime":"2025-02-05T09:00:00:Z","depth":0,"parameterNumber":2,"parameterNumberName":"U-component_of_WINDS"},"data":[0,0,0,0,0,0,0,0,0,0,0,0,0,0,0,0,0,0,0,0,0,0,0,0,0,0,0,0,0,0,0,0,0,0,0,0,0,0,0,0,0,0,0,0,0,0,0,0,0,0,0,0,0,0,0,0,0,0,-0.7918,-0.7918,0,-0.7909,-0.7909,-0.7909,-0.7875,-0.7874,-0.7873,-0.7872,-0.7865,-0.7865,-0.7866,0,0,0,0,0,0,0,0,0,0,0,0,0,-0.791,-0.7911,-0.7918,-0.7918,-0.7918,-0.7909,-0.7909,-0.7909,-0.7875,-0.7874,-0.7873,-0.7872,-0.7865,-0.7865,-0.7866,0,0,0,0,0,0,0,0,0,0,0,0,0,-0.7909,-0.7911,-0.7918,-0.79,-0.7898,-0.7909,-0.7909,-0.7909,-0.7875,-0.7874,-0.7873,-0.7872,-0.7864,-0.7865,-0.7866,-0.7894,0,0,-0.7868,-0.7869,0,0,0,0,0,0,0,0,-0.7909,-0.7909,-0.7903,-0.7901,-0.7899,-0.7892,-0.7903,-0.7904,-0.7875,-0.7884,-0.7872,-0.7871,-0.7875,-0.7875,-0.7876,-0.7894,-0.7894,-0.7868,-0.7869,-0.7869,-0.787,0,0,0,0,0,0,0,-0.7909,-0.7909,-0.7915,-0.7903,-0.7901,-0.7893,-0.7892,-0.7903,-0.7886,-0.7883,-0.7881,-0.788,-0.7874,-0.7875,-0.7875,-0.7893,-0.7868,-0.7869,-0.787,-0.787,-0.7936,-0.7938,0,0,0,0,0,0,-0.7911,-0.791,-0.7915,-0.7914,-0.7901,-0.7895,-0.7893,-0.7895,-0.7886,-0.7883,-0.7881,-0.7878,-0.7874,-0.7874,-0.7875,-0.7908,-0.7869,-0.787,-0.787,-0.7935,-0.7937,-0.7938,0,0,0,0,0,0,-0.7911,-0.7912,-0.7915,-0.7911,-0.7911,-0.7896,-0.7899,-0.7896,-0.7897,-0.7884,-0.7881,-0.7885,-0.7873,-0.7874,-0.789,-0.7907,-0.787,-0.7871,-0.7934,-0.7936,-0.7937,-0.7975,0,0,0,0,0,0,-0.7911,-0.7912,-0.7922,-0.7912,-0.7912,-0.793,-0.79,-0.7897,-0.7898,-0.7895,-0.7887,-0.7885,-0.7872,-0.7889,-0.7891,-0.7908,-0.7872,-0.7932,-0.7934,-0.7937,-0.7972,-0.7978,-0.7983,0,0,0,0,0,-0.7911,-0.7933,-0.7923,-0.7924,-0.7923,-0.7931,-0.7931,-0.7915,-0.79,-0.791,-0.7902,-0.7885,-0.7905,-0.7891,-0.7893,-0.791,-0.7931,-0.7934,-0.7937,-0.7969,-0.7977,-0.7983,0,0,0,0,0,0,-0.7946,-0.7931,-0.792,-0.7939,-0.7936,-0.7925,-0.7937,-0.7923,-0.7925,-0.7922,-0.7903,-0.7902,-0.7921,-0.7917,-0.7902,-0.7938,-0.7915,-0.7919,-0.794,-0.7946,-0.7952,-0.7952,-0.7872,0,0,0,0,0,-0.7956,-0.7963,-0.795,-0.7968,-0.7967,-0.7953,-0.7955,-0.7944,-0.7941,-0.794,-0.7933,-0.7931,-0.7937,-0.7942,-0.7946,-0.7971,-0.797,-0.7985,-0.799,-0.7994,-0.7998,-0.8012,-0.8019,-0.7948,-0.7948,-0.7947,0,0,-0.7977,-0.7969,-0.7975,-0.7975,-0.7971,-0.798,-0.7952,-0.7962,-0.7968,-0.7941,-0.7956,-0.7951,-0.7949,-0.797,-0.7979,-0.7967,-0.8017,-0.7998,-0.8002,-0.8003,-0.8016,-0.8023,-0.8029,-0.795,-0.7949,-0.7949,0,0,-0.8018,-0.8013,-0.8028,-0.8026,-0.8021,-0.8012,-0.8015,-0.8007,-0.8002,-0.8017,-0.7997,-0.8005,-0.8016,-0.8015,-0.8016,-0.806,-0.8045,-0.8062,-0.809,-0.8104,-0.811,-0.8115,-0.8132,-0.8138,-0.8065,-0.8065,-0.8065,0,-0.8045,-0.8056,-0.8038,-0.8049,-0.8051,-0.8027,-0.8043,-0.8041,-0.8039,-0.8041,-0.8028,-0.8041,-0.8038,-0.8059,-0.807,-0.8071,-0.8076,-0.8062,-0.811,-0.8115,-0.812,-0.8135,-0.8141,-0.8067,-0.8067,-0.8067,-0.8067,0,-0.8089,-0.8097,-0.811,-0.8108,-0.8111,-0.8124,-0.811,-0.8115,-0.8104,-0.8096,-0.8113,-0.8108,-0.8112,-0.8116,-0.8105,-0.8136,-0.8129,-0.8114,-0.809,-0.8129,-0.8143,-0.8149,-0.807,-0.807,-0.8069,-0.8068,0,0,-0.8152,-0.8141,-0.8146,-0.8145,-0.8139,-0.8145,-0.8159,-0.8162,-0.8168,-0.8167,-0.8179,-0.8189,-0.8175,-0.8176,-0.8165,-0.8178,-0.8214,-0.8161,-0.8161,-0.8172,-0.825,-0.8262,-0.8269,-0.8204,-0.8205,-0.8206,-0.8251,0,-0.8192,-0.8213,-0.8199,-0.8223,-0.8231,-0.8209,-0.8221,-0.822,-0.8213,-0.822,-0.8213,-0.8221,-0.8201,-0.8202,-0.8214,-0.8207,-0.823,-0.8204,-0.8216,-0.8217,-0.8218,-0.8277,-0.8289,-0.8331,-0.8256,-0.8257,-0.8258,0,-0.8242,-0.8243,-0.8268,-0.8262,-0.8265,-0.8276,-0.8278,-0.8285,-0.8283,-0.8278,-0.828,-0.8266,-0.828,-0.8258,-0.8278,-0.8261,-0.8265,-0.8263,-0.8264,-0.8265,-0.824,-0.828,-0.8344,-0.8351,-0.8266,-0.8265,-0.8265,0,-0.8286,-0.8295,-0.8311,-0.8311,-0.8304,-0.8312,-0.831,-0.8307,-0.831,-0.8313,-0.8316,-0.8321,-0.8323,-0.8328,-0.8317,-0.8301,-0.8339,-0.8315,-0.8336,-0.8336,-0.8345,-0.8345,-0.8411,-0.8347,-0.8347,-0.8347,-0.8347,0,-0.8333,-0.8349,-0.8331,-0.8341,-0.8359,-0.8343,-0.8362,-0.8358,-0.8356,-0.8365,-0.8347,-0.8357,-0.8341,-0.835,-0.8341,-0.836,-0.8361,-0.8358,-0.8356,-0.836,-0.8361,-0.8363,-0.836,-0.8348,-0.8348,-0.8348,-0.8348,0,-0.8386,-0.8374,-0.839,-0.8382,-0.8381,-0.8395,-0.8388,-0.8398,-0.8391,-0.8404,-0.8406,-0.8395,-0.8405,-0.8394,-0.8402,-0.8397,-0.8422,-0.8415,-0.8423,-0.8421,-0.8443,-0.8441,-0.8514,-0.8523,-0.8452,-0.8453,-0.8454,0,-0.8416,-0.8428,-0.8422,-0.8427,-0.8425,-0.8434,-0.8437,-0.8423,-0.8427,-0.8427,-0.8438,-0.8446,-0.8451,-0.8468,-0.8461,-0.8468,-0.8462,-0.8487,-0.8463,-0.8467,-0.8463,-0.8463,-0.8464,-0.8492,-0.8493,-0.8493,-0.8494,0,-0.8473,-0.8467,-0.8472,-0.8476,-0.8481,-0.8484,-0.8485,-0.849,-0.8475,-0.8482,-0.8491,-0.8495,-0.8505,-0.8513,-0.8519,-0.8517,-0.8504,-0.8501,-0.8507,-0.8511,-0.8516,-0.8515,-0.8437,-0.85,-0.8499,-0.8499,-0.8498,-0.8498,-0.8516,-0.8526,-0.8523,-0.853,-0.853,-0.8532,-0.8541,-0.8535,-0.8543,-0.8548,-0.854,-0.8552,-0.8552,-0.8557,-0.8558,-0.8568,-0.8558,-0.8565,-0.8567,-0.8569,-0.8573,-0.8514,-0.8569,-0.8569,-0.8569,-0.8569,-0.8568,0,-0.8572,-0.8569,-0.8576,-0.8578,-0.8585,-0.8571,-0.8572,-0.8578,-0.8589,-0.8589,-0.8595,-0.8607,-0.8616,-0.8611,-0.8618,-0.8628,-0.8622,-0.863,-0.863,-0.863,-0.8582,-0.8576,-0.8635,-0.8635,-0.8635,-0.8635,-0.8635,-0.8635,-0.8602,-0.8619,-0.8612,-0.863,-0.8627,-0.8638,-0.8641,-0.8643,-0.8643,-0.8657,-0.8664,-0.866,-0.8659,-0.8667,-0.8675,-0.8673,-0.8678,-0.8689,-0.8685,-0.864,-0.8633,-0.8627,-0.8622,-0.8689,-0.8689,-0.8732,-0.8733,-0.8733]},{"header":{"parameterUnit":"m.s-1","parameterCategory":1,"la1":30.2991,"la2":30.254,"lo1":-89.0895,"lo2":-89.0444,"dy":0.0017,"dx":0.0017,"nx":28,"ny":28,"refTime":"2025-02-05T09:00:00:Z","depth":0,"parameterNumber":3,"parameterNumberName":"V-component_of_WINDS"},"data":[0,0,0,0,0,0,0,0,0,0,0,0,0,0,0,0,0,0,0,0,0,0,0,0,0,0,0,0,0,0,0,0,0,0,0,0,0,0,0,0,0,0,0,0,0,0,0,0,0,0,0,0,0,0,0,0,0,0,0.9491,0.949,0,0.9453,0.9452,0.9452,0.9454,0.9454,0.9455,0.9455,0.9417,0.9415,0.9414,0,0,0,0,0,0,0,0,0,0,0,0,0,0.9566,0.9565,0.9491,0.949,0.949,0.9453,0.9452,0.9452,0.9454,0.9454,0.9455,0.9456,0.9417,0.9415,0.9414,0,0,0,0,0,0,0,0,0,0,0,0,0,0.9531,0.9564,0.9491,0.9486,0.9486,0.9453,0.9452,0.9452,0.9453,0.9454,0.9455,0.9456,0.9418,0.9416,0.9413,0.9383,0,0,0.9406,0.9405,0,0,0,0,0,0,0,0,0.9533,0.9528,0.9488,0.9487,0.9486,0.9459,0.9465,0.9429,0.9453,0.9466,0.9455,0.9456,0.943,0.9427,0.9418,0.9381,0.9379,0.9406,0.9405,0.9404,0.9403,0,0,0,0,0,0,0,0.9535,0.953,0.9476,0.9487,0.9486,0.9486,0.9482,0.9458,0.9444,0.9465,0.9465,0.946,0.943,0.942,0.9417,0.9379,0.9406,0.9404,0.9403,0.9402,0.9315,0.9315,0,0,0,0,0,0,0.9539,0.9532,0.9477,0.9475,0.9512,0.9484,0.948,0.9467,0.9444,0.9441,0.9459,0.946,0.9424,0.942,0.9416,0.9379,0.9404,0.9402,0.94,0.9316,0.9315,0.9314,0,0,0,0,0,0,0.954,0.9534,0.9479,0.9503,0.9496,0.9482,0.9467,0.9465,0.9456,0.944,0.9438,0.9452,0.9424,0.9419,0.9391,0.9378,0.9401,0.9398,0.9317,0.9316,0.9315,0.9305,0,0,0,0,0,0,0.9543,0.9534,0.9523,0.9503,0.9495,0.9454,0.9466,0.9464,0.9452,0.9453,0.9433,0.943,0.9424,0.9394,0.9389,0.9375,0.9397,0.9319,0.9317,0.9315,0.9306,0.9303,0.9301,0,0,0,0,0,0.9545,0.9521,0.9522,0.9515,0.948,0.9454,0.9449,0.9443,0.9451,0.9439,0.9429,0.9431,0.938,0.9392,0.9385,0.937,0.9319,0.9317,0.9315,0.9308,0.9304,0.9301,0,0,0,0,0,0,0.954,0.9519,0.9519,0.9488,0.9473,0.9454,0.9439,0.9439,0.9421,0.9422,0.9416,0.9411,0.9383,0.9374,0.9387,0.934,0.9351,0.9347,0.9347,0.9343,0.9341,0.9344,0.9395,0,0,0,0,0,0.9535,0.9515,0.9498,0.9472,0.9464,0.9453,0.9441,0.9438,0.9421,0.9415,0.9403,0.9387,0.9368,0.9355,0.9336,0.9305,0.9301,0.9292,0.9289,0.9287,0.9284,0.9267,0.9263,0.9308,0.9308,0.9308,0,0,0.9525,0.9511,0.9499,0.9471,0.9458,0.9438,0.9447,0.9426,0.9411,0.9412,0.9385,0.9375,0.9357,0.9328,0.9314,0.9319,0.9271,0.9284,0.9282,0.9281,0.9265,0.9261,0.9257,0.9306,0.9306,0.9307,0,0,0.9496,0.9484,0.9461,0.9448,0.9429,0.9422,0.9416,0.9398,0.9391,0.9364,0.9364,0.9347,0.9313,0.9301,0.929,0.9256,0.9258,0.9251,0.9236,0.922,0.9217,0.9214,0.9202,0.9198,0.9248,0.9248,0.9248,0,0.9486,0.9456,0.9449,0.9428,0.9416,0.9415,0.9392,0.9381,0.9356,0.9348,0.9354,0.9312,0.93,0.9268,0.926,0.9251,0.9245,0.9253,0.9218,0.9214,0.9211,0.9201,0.9196,0.9247,0.9247,0.9247,0.9247,0,0.9445,0.9424,0.9408,0.9385,0.9371,0.9349,0.9339,0.9326,0.9323,0.9315,0.9288,0.9273,0.9252,0.9243,0.9241,0.9211,0.9215,0.9219,0.923,0.9207,0.9197,0.9192,0.9246,0.9246,0.9246,0.9247,0,0,0.9412,0.9386,0.938,0.937,0.9349,0.9332,0.931,0.9289,0.9278,0.9261,0.9243,0.9215,0.9219,0.9207,0.9203,0.9188,0.9164,0.9195,0.9194,0.919,0.9131,0.9128,0.9123,0.9164,0.9163,0.9163,0.9132,0,0.9382,0.9343,0.9337,0.9303,0.9283,0.9283,0.9264,0.9249,0.9241,0.9223,0.9214,0.9195,0.9201,0.9194,0.918,0.917,0.9152,0.9172,0.9148,0.9147,0.9153,0.9118,0.9115,0.9087,0.9128,0.9128,0.9127,0,0.9342,0.9324,0.9288,0.927,0.9262,0.9245,0.9225,0.9208,0.9192,0.9187,0.9173,0.9171,0.9149,0.916,0.9129,0.9143,0.9133,0.9126,0.9125,0.9123,0.9136,0.9116,0.9078,0.9074,0.9121,0.9121,0.9122,0,0.9323,0.929,0.9264,0.9255,0.9233,0.9222,0.9212,0.9196,0.9184,0.9166,0.9159,0.9139,0.9128,0.9113,0.9106,0.9115,0.9076,0.9086,0.9072,0.9072,0.9064,0.9065,0.9025,0.9056,0.9056,0.9056,0.9056,0,0.929,0.9269,0.9255,0.924,0.9215,0.9208,0.9184,0.9175,0.9161,0.9143,0.9141,0.9125,0.9116,0.9099,0.9093,0.9069,0.9064,0.9059,0.9058,0.906,0.9061,0.9054,0.9056,0.9055,0.9055,0.9056,0.9056,0,0.9265,0.9255,0.9227,0.9209,0.9204,0.9187,0.9171,0.9156,0.9148,0.9126,0.912,0.9108,0.9087,0.9078,0.9053,0.9049,0.9021,0.9021,0.9027,0.9027,0.9013,0.9015,0.8968,0.8961,0.8996,0.8996,0.8996,0,0.9245,0.9229,0.9208,0.9196,0.9186,0.9167,0.9155,0.9147,0.9134,0.9114,0.9101,0.9081,0.9064,0.9031,0.902,0.9001,0.9001,0.8985,0.8998,0.9,0.9001,0.9003,0.9001,0.8983,0.8983,0.8983,0.8982,0,0.9212,0.9208,0.919,0.917,0.9155,0.9139,0.9124,0.9114,0.9104,0.909,0.9069,0.9055,0.903,0.9009,0.8989,0.898,0.898,0.8979,0.8974,0.8976,0.8981,0.8979,0.9022,0.898,0.898,0.898,0.898,0.8981,0.9189,0.9174,0.9158,0.9138,0.9125,0.9111,0.9096,0.9086,0.9068,0.9046,0.9043,0.902,0.9004,0.8978,0.8967,0.895,0.8954,0.8947,0.8946,0.8945,0.8944,0.8983,0.8946,0.8946,0.8946,0.8946,0.8946,0,0.9156,0.9145,0.9127,0.9105,0.909,0.909,0.9073,0.906,0.9041,0.9026,0.9009,0.8985,0.8966,0.8953,0.8933,0.8922,0.8921,0.8917,0.8918,0.8916,0.8941,0.8947,0.8918,0.8918,0.8918,0.8918,0.8918,0.8918,0.9137,0.9112,0.9106,0.9075,0.9065,0.9043,0.9033,0.902,0.9008,0.8981,0.8965,0.8957,0.8942,0.8922,0.8904,0.8901,0.8894,0.8889,0.8887,0.8911,0.8914,0.8917,0.8923,0.8888,0.8888,0.8862,0.8862,0.8862]}]]